| time (UTC) | temp C | wind direction | speed KPH | gust KPH | rain 1hr cm | rain 24hr cm | rain mn cm | humidity % | barometer mb |
| 20260506113028 | 12 | 0 | 0.0 | 3.2 | 0.08 | 0.08 | 0.08 | 92 | 1007.6 |
| 20260506112513 | 12 | 0 | 0.0 | 3.2 | 0.05 | 0.05 | 0.05 | 91 | 1007.6 |
| 20260506112012 | 12 | 13 | 1.6 | 3.2 | 0.05 | 0.05 | 0.05 | 90 | 1007.4 |
| 20260506111528 | 13 | 0 | 0.0 | 4.8 | 0.05 | 0.05 | 0.05 | 88 | 1007.5 |
| 20260506111011 | 13 | 0 | 0.0 | 4.8 | 0.03 | 0.03 | 0.03 | 87 | 1007.5 |
| 20260506110514 | 13 | 13 | 1.6 | 4.8 | 0.00 | 0.00 | 0.00 | 87 | 1007.6 |
| 20260506110030 | 13 | 0 | 0.0 | 3.2 | 0.00 | 0.00 | 0.00 | 87 | 1007.6 |
| 20260506105512 | 13 | 0 | 0.0 | 4.8 | 0.00 | 0.00 | 0.00 | 86 | 1007.7 |
| 20260506105012 | 13 | 13 | 1.6 | 4.8 | 0.00 | 0.00 | 0.00 | 85 | 1007.5 |
| 20260506104554 | 13 | 13 | 3.2 | 4.8 | 0.00 | 0.00 | 0.00 | 87 | 1007.4 |
| 20260506104011 | 12 | 17 | 1.6 | 6.4 | 0.00 | 0.00 | 0.00 | 88 | 1007.4 |
| 20260506103511 | 12 | 38 | 3.2 | 6.4 | 0.00 | 0.00 | 0.00 | 89 | 1007.1 |
| 20260506103029 | 12 | 59 | 3.2 | 4.8 | 0.00 | 0.00 | 0.00 | 89 | 1007.1 |
| 20260506102511 | 12 | 59 | 1.6 | 4.8 | 0.00 | 0.00 | 0.00 | 89 | 1007.0 |
| 20260506102009 | 12 | 59 | 1.6 | 4.8 | 0.00 | 0.00 | 0.00 | 88 | 1007.1 |
| 20260506101532 | 12 | 0 | 1.6 | 6.4 | 0.00 | 0.00 | 0.00 | 88 | 1007.1 |
| 20260506101013 | 12 | 59 | 3.2 | 6.4 | 0.00 | 0.00 | 0.00 | 88 | 1006.9 |
| 20260506100511 | 12 | 0 | 0.0 | 0.0 | 0.00 | 0.00 | 0.00 | 87 | 1007.0 |
| 20260506100039 | 13 | 0 | 0.0 | 0.0 | 0.00 | 0.00 | 0.00 | 86 | 1006.9 |
| 20260506095511 | 13 | 0 | 0.0 | 0.0 | 0.00 | 0.00 | 0.00 | 84 | 1007.0 |
| 20260506095010 | 13 | 0 | 0.0 | 0.0 | 0.00 | 0.00 | 0.00 | 82 | 1007.0 |
| 20260506094533 | 13 | 0 | 0.0 | 0.0 | 0.00 | 0.00 | 0.00 | 82 | 1007.1 |
| 20260506094016 | 13 | 0 | 0.0 | 0.0 | 0.00 | 0.00 | 0.00 | 81 | 1007.0 |
| 20260506093513 | 13 | 0 | 0.0 | 0.0 | 0.00 | 0.00 | 0.00 | 81 | 1006.9 |
| 20260506093028 | 13 | 0 | 0.0 | 3.2 | 0.00 | 0.00 | 0.00 | 82 | 1006.9 |
| 20260506092512 | 13 | 0 | 0.0 | 3.2 | 0.00 | 0.00 | 0.00 | 82 | 1006.9 |
| 20260506092013 | 13 | 0 | 0.0 | 3.2 | 0.00 | 0.00 | 0.00 | 83 | 1006.9 |
| 20260506091529 | 13 | 65 | 0.0 | 3.2 | 0.00 | 0.00 | 0.00 | 82 | 1006.9 |
| 20260506091011 | 13 | 0 | 0.0 | 0.0 | 0.00 | 0.00 | 0.00 | 82 | 1007.1 |
| 20260506090513 | 13 | 0 | 0.0 | 0.0 | 0.00 | 0.00 | 0.00 | 84 | 1007.0 |
| 20260506090040 | 13 | 0 | 0.0 | 0.0 | 0.00 | 0.00 | 0.00 | 83 | 1007.1 |
| 20260506085513 | 13 | 0 | 0.0 | 0.0 | 0.00 | 0.00 | 0.00 | 83 | 1007.0 |
| 20260506085012 | 13 | 0 | 0.0 | 0.0 | 0.00 | 0.00 | 0.00 | 84 | 1007.2 |
| 20260506084528 | 13 | 0 | 0.0 | 3.2 | 0.00 | 0.00 | 0.00 | 84 | 1007.3 |
| 20260506084017 | 13 | 0 | 0.0 | 3.2 | 0.00 | 0.00 | 0.00 | 89 | 1007.2 |
| 20260506083513 | 12 | 0 | 0.0 | 3.2 | 0.00 | 0.00 | 0.00 | 92 | 1007.4 |
| 20260506083037 | 12 | 0 | 0.0 | 0.0 | 0.00 | 0.00 | 0.00 | 94 | 1007.4 |
| 20260506082511 | 12 | 0 | 0.0 | 0.0 | 0.00 | 0.00 | 0.00 | 95 | 1007.2 |
| 20260506082013 | 12 | 0 | 0.0 | 0.0 | 0.00 | 0.00 | 0.00 | 95 | 1007.1 |
| 20260506081526 | 12 | 0 | 0.0 | 0.0 | 0.00 | 0.00 | 0.00 | 96 | 1007.2 |
| 20260506081010 | 12 | 0 | 0.0 | 0.0 | 0.00 | 0.00 | 0.00 | 96 | 1007.1 |
| 20260506080513 | 12 | 0 | 0.0 | 0.0 | 0.00 | 0.00 | 0.00 | 96 | 1007.1 |
| 20260506073517 | 12 | 42 | 0.0 | 1.6 | 0.00 | 0.00 | 0.00 | 96 | 1007.1 |
| 20260506073030 | 12 | 0 | 0.0 | 1.6 | 0.00 | 0.00 | 0.00 | 96 | 1007.3 |
| 20260506072517 | 12 | 0 | 0.0 | 0.0 | 0.00 | 0.00 | 0.00 | 96 | 1007.3 |
| 20260506072011 | 12 | 0 | 0.0 | 0.0 | 0.00 | 0.00 | 0.00 | 96 | 1007.4 |
| 20260506071529 | 12 | 0 | 0.0 | 0.0 | 0.00 | 0.00 | 0.00 | 96 | 1007.4 |
| 20260506071011 | 12 | 0 | 0.0 | 0.0 | 0.00 | 0.00 | 0.00 | 96 | 1007.5 |
| 20260506070512 | 12 | 0 | 0.0 | 0.0 | 0.00 | 0.00 | 0.00 | 96 | 1007.5 |
| 20260506062515 | 12 | 0 | 0.0 | 0.0 | 0.00 | 0.00 | 0.00 | 95 | 1007.8 |
| 20260506062011 | 12 | 0 | 0.0 | 0.0 | 0.00 | 0.00 | 0.00 | 95 | 1007.8 |
| 20260506061530 | 12 | 0 | 0.0 | 0.0 | 0.00 | 0.00 | 0.00 | 95 | 1007.9 |
| 20260506061016 | 12 | 0 | 0.0 | 0.0 | 0.00 | 0.00 | 0.00 | 94 | 1008.0 |
| 20260506060514 | 12 | 0 | 0.0 | 0.0 | 0.00 | 0.00 | 0.00 | 94 | 1008.1 |
| 20260506051012 | 12 | 0 | 0.0 | 6.4 | 0.00 | 0.00 | 0.00 | 90 | 1008.7 |
| 20260506050510 | 13 | 32 | 3.2 | 6.4 | 0.00 | 0.00 | 0.00 | 90 | 1008.5 |
| 20260506045012 | 14 | 55 | 3.2 | 6.4 | 0.00 | 0.00 | 0.00 | 89 | 1008.5 |
| 20260506044532 | 14 | 55 | 1.6 | 6.4 | 0.00 | 0.00 | 0.00 | 89 | 1008.6 |
| 20260506044008 | 14 | 57 | 3.2 | 8.0 | 0.00 | 0.00 | 0.00 | 88 | 1008.7 |
| 20260506043513 | 14 | 26 | 3.2 | 8.0 | 0.00 | 0.00 | 0.00 | 88 | 1008.6 |
| 20260506043028 | 14 | 34 | 4.8 | 9.7 | 0.00 | 0.00 | 0.00 | 88 | 1008.5 |
| 20260506042515 | 14 | 30 | 6.4 | 9.7 | 0.00 | 0.00 | 0.00 | 87 | 1008.6 |
| 20260506042011 | 14 | 38 | 4.8 | 11.3 | 0.00 | 0.00 | 0.00 | 87 | 1008.7 |
| 20260506041528 | 13 | 42 | 4.8 | 11.3 | 0.00 | 0.00 | 0.00 | 87 | 1008.8 |
| 20260506041011 | 13 | 327 | 1.6 | 6.4 | 0.00 | 0.00 | 0.00 | 88 | 1008.8 |
| 20260506040511 | 13 | 327 | 3.2 | 8.0 | 0.00 | 0.00 | 0.00 | 87 | 1008.8 |
| 20260506040042 | 13 | 0 | 1.6 | 8.0 | 0.00 | 0.00 | 0.00 | 87 | 1008.8 |
| 20260506035511 | 12 | 321 | 4.8 | 8.0 | 0.00 | 0.00 | 0.00 | 86 | 1008.8 |
| 20260506035012 | 12 | 321 | 4.8 | 8.0 | 0.00 | 0.00 | 0.00 | 85 | 1008.8 |
| 20260506034530 | 12 | 321 | 4.8 | 8.0 | 0.00 | 0.00 | 0.00 | 85 | 1008.7 |
| 20260506034013 | 12 | 321 | 0.0 | 6.4 | 0.00 | 0.00 | 0.00 | 85 | 1008.7 |
| 20260506033512 | 13 | 0 | 0.0 | 0.0 | 0.00 | 0.00 | 0.00 | 84 | 1008.6 |
| 20260506033029 | 13 | 0 | 0.0 | 0.0 | 0.00 | 0.00 | 0.00 | 85 | 1008.6 |
| 20260506032514 | 13 | 0 | 0.0 | 1.6 | 0.00 | 0.00 | 0.00 | 85 | 1008.6 |
| 20260506032011 | 13 | 0 | 0.0 | 3.2 | 0.00 | 0.00 | 0.00 | 86 | 1008.7 |
| 20260506031528 | 13 | 0 | 0.0 | 3.2 | 0.00 | 0.00 | 0.00 | 86 | 1008.6 |
| 20260506031013 | 13 | 321 | 0.0 | 3.2 | 0.00 | 0.00 | 0.00 | 85 | 1008.5 |
| 20260506030515 | 13 | 0 | 0.0 | 4.8 | 0.00 | 0.00 | 0.00 | 85 | 1008.6 |
| 20260506030030 | 13 | 0 | 1.6 | 4.8 | 0.00 | 0.00 | 0.00 | 84 | 1008.6 |
| 20260506025512 | 13 | 321 | 1.6 | 4.8 | 0.00 | 0.00 | 0.00 | 84 | 1008.5 |
| 20260506025013 | 13 | 321 | 1.6 | 4.8 | 0.00 | 0.00 | 0.00 | 83 | 1008.6 |
| 20260506024536 | 14 | 0 | 0.0 | 0.0 | 0.00 | 0.00 | 0.00 | 83 | 1008.5 |
| 20260506024012 | 14 | 0 | 0.0 | 0.0 | 0.00 | 0.00 | 0.00 | 83 | 1008.5 |
| 20260506023511 | 14 | 0 | 0.0 | 0.0 | 0.00 | 0.00 | 0.00 | 82 | 1008.5 |
| 20260506023030 | 15 | 0 | 0.0 | 0.0 | 0.00 | 0.00 | 0.00 | 82 | 1008.5 |
| 20260506022512 | 15 | 0 | 0.0 | 0.0 | 0.00 | 0.00 | 0.00 | 82 | 1008.5 |
| 20260506022011 | 15 | 0 | 0.0 | 0.0 | 0.00 | 0.00 | 0.00 | 82 | 1008.5 |
| 20260506021542 | 15 | 0 | 0.0 | 0.0 | 0.00 | 0.00 | 0.00 | 81 | 1008.5 |
| 20260506021011 | 15 | 0 | 0.0 | 0.0 | 0.00 | 0.00 | 0.00 | 81 | 1008.5 |
| 20260506020513 | 15 | 0 | 0.0 | 0.0 | 0.00 | 0.00 | 0.00 | 81 | 1008.5 |
| 20260506020028 | 15 | 0 | 0.0 | 0.0 | 0.00 | 0.00 | 0.00 | 80 | 1008.5 |
| 20260506015512 | 15 | 0 | 0.0 | 0.0 | 0.00 | 0.00 | 0.00 | 80 | 1008.5 |
| 20260506015015 | 15 | 0 | 0.0 | 0.0 | 0.00 | 0.00 | 0.00 | 80 | 1008.5 |
| 20260506014530 | 15 | 0 | 0.0 | 0.0 | 0.00 | 0.00 | 0.00 | 80 | 1008.5 |
| 20260506014008 | 16 | 0 | 0.0 | 0.0 | 0.00 | 0.00 | 0.00 | 80 | 1008.5 |
| 20260506013512 | 15 | 0 | 0.0 | 0.0 | 0.00 | 0.00 | 0.00 | 81 | 1008.4 |
| 20260506013030 | 16 | 0 | 0.0 | 0.0 | 0.00 | 0.00 | 0.00 | 80 | 1008.4 |
| 20260506012510 | 16 | 0 | 0.0 | 0.0 | 0.00 | 0.00 | 0.00 | 79 | 1008.4 |
| 20260506012009 | 16 | 0 | 0.0 | 0.0 | 0.00 | 0.00 | 0.00 | 80 | 1008.3 |
| 20260506011529 | 15 | 0 | 0.0 | 3.2 | 0.00 | 0.00 | 0.00 | 80 | 1008.3 |
| 20260506011011 | 16 | 0 | 0.0 | 3.2 | 0.00 | 0.00 | 0.00 | 79 | 1008.2 |
| 20260506010510 | 16 | 321 | 1.6 | 3.2 | 0.00 | 0.00 | 0.00 | 77 | 1008.0 |
| 20260506010039 | 16 | 321 | 0.0 | 3.2 | 0.00 | 0.00 | 0.00 | 77 | 1008.1 |
| 20260506005511 | 16 | 0 | 0.0 | 3.2 | 0.00 | 0.00 | 0.00 | 77 | 1008.0 |
| 20260506005013 | 16 | 0 | 0.0 | 3.2 | 0.00 | 0.00 | 0.00 | 76 | 1008.0 |
| 20260506004528 | 17 | 321 | 0.0 | 3.2 | 0.00 | 0.00 | 0.00 | 75 | 1008.0 |
| 20260506004012 | 17 | 0 | 0.0 | 0.0 | 0.00 | 0.00 | 0.00 | 74 | 1007.9 |
| 20260506003511 | 17 | 0 | 0.0 | 0.0 | 0.00 | 0.00 | 0.00 | 74 | 1007.9 |
| 20260506003028 | 17 | 0 | 0.0 | 0.0 | 0.00 | 0.00 | 0.00 | 75 | 1007.9 |
| 20260506002515 | 17 | 0 | 0.0 | 0.0 | 0.00 | 0.00 | 0.00 | 72 | 1007.9 |
| 20260506002011 | 17 | 0 | 0.0 | 3.2 | 0.00 | 0.00 | 0.00 | 73 | 1007.9 |
| 20260506001530 | 17 | 0 | 0.0 | 4.8 | 0.00 | 0.00 | 0.00 | 72 | 1007.9 |
| 20260506001011 | 18 | 321 | 0.0 | 4.8 | 0.00 | 0.00 | 0.00 | 71 | 1007.9 |
| 20260506000511 | 18 | 321 | 1.6 | 4.8 | 0.00 | 0.00 | 0.00 | 70 | 1007.8 |
| 20260506000031 | 18 | 321 | 1.6 | 4.8 | 0.00 | 0.00 | 0.00 | 69 | 1007.9 |
| 20260505235510 | 18 | 321 | 1.6 | 4.8 | 0.00 | 0.00 | 0.00 | 68 | 1007.8 |
| 20260505235012 | 19 | 321 | 3.2 | 4.8 | 0.00 | 0.00 | 0.00 | 66 | 1007.6 |
| 20260505234539 | 19 | 321 | 1.6 | 6.4 | 0.00 | 0.00 | 0.00 | 65 | 1007.7 |
| 20260505234010 | 19 | 321 | 3.2 | 6.4 | 0.00 | 0.00 | 0.00 | 65 | 1007.6 |
| 20260505233514 | 20 | 321 | 3.2 | 8.0 | 0.00 | 0.00 | 0.00 | 63 | 1007.6 |
| 20260505233028 | 20 | 321 | 4.8 | 8.0 | 0.00 | 0.00 | 0.00 | 61 | 1007.5 |
| 20260505232511 | 20 | 321 | 4.8 | 12.9 | 0.00 | 0.00 | 0.00 | 59 | 1007.5 |
| 20260505232011 | 21 | 323 | 4.8 | 12.9 | 0.00 | 0.00 | 0.00 | 56 | 1007.4 |
| 20260505231531 | 21 | 318 | 4.8 | 8.0 | 0.00 | 0.00 | 0.00 | 53 | 1007.3 |
| 20260505231012 | 21 | 313 | 3.2 | 8.0 | 0.00 | 0.00 | 0.00 | 53 | 1007.3 |
| 20260505230509 | 21 | 219 | 0.0 | 6.4 | 0.00 | 0.00 | 0.00 | 52 | 1007.2 |
| 20260505230028 | 21 | 0 | 0.0 | 8.0 | 0.00 | 0.00 | 0.00 | 54 | 1007.1 |
| 20260505225511 | 21 | 184 | 1.6 | 8.0 | 0.00 | 0.00 | 0.00 | 49 | 1007.1 |
| 20260505225011 | 21 | 186 | 1.6 | 8.0 | 0.00 | 0.00 | 0.00 | 48 | 1007.0 |
| 20260505224531 | 22 | 0 | 0.0 | 8.0 | 0.00 | 0.00 | 0.00 | 48 | 1007.0 |
| 20260505224011 | 22 | 194 | 1.6 | 11.3 | 0.00 | 0.00 | 0.00 | 48 | 1007.0 |
| 20260505223510 | 22 | 200 | 3.2 | 11.3 | 0.00 | 0.00 | 0.00 | 47 | 1006.9 |
| 20260505223028 | 22 | 192 | 3.2 | 12.9 | 0.00 | 0.00 | 0.00 | 47 | 1006.8 |
| 20260505222511 | 22 | 192 | 6.4 | 19.3 | 0.00 | 0.00 | 0.00 | 46 | 1006.7 |
| 20260505222009 | 22 | 183 | 6.4 | 19.3 | 0.00 | 0.00 | 0.00 | 46 | 1006.7 |
| 20260505221528 | 22 | 201 | 8.0 | 24.1 | 0.00 | 0.00 | 0.00 | 46 | 1006.7 |
| 20260505221009 | 22 | 205 | 9.7 | 27.4 | 0.00 | 0.00 | 0.00 | 45 | 1006.6 |
| 20260505220512 | 22 | 198 | 11.3 | 35.4 | 0.00 | 0.00 | 0.00 | 45 | 1006.7 |
| 20260505220027 | 23 | 196 | 14.5 | 35.4 | 0.00 | 0.00 | 0.00 | 45 | 1006.7 |
| 20260505215510 | 23 | 221 | 14.5 | 33.8 | 0.00 | 0.00 | 0.00 | 44 | 1006.6 |
| 20260505215012 | 23 | 171 | 9.7 | 30.6 | 0.00 | 0.00 | 0.00 | 45 | 1006.6 |
| 20260505214536 | 23 | 211 | 14.5 | 27.4 | 0.00 | 0.00 | 0.00 | 45 | 1006.5 |
| 20260505214015 | 23 | 151 | 12.9 | 27.4 | 0.00 | 0.00 | 0.00 | 44 | 1006.4 |
| 20260505213510 | 23 | 195 | 9.7 | 33.8 | 0.00 | 0.00 | 0.00 | 46 | 1006.4 |
| 20260505213027 | 23 | 211 | 14.5 | 38.6 | 0.00 | 0.00 | 0.00 | 46 | 1006.5 |
| 20260505212515 | 23 | 236 | 17.7 | 38.6 | 0.00 | 0.00 | 0.00 | 44 | 1006.5 |
| 20260505212013 | 23 | 192 | 12.9 | 30.6 | 0.00 | 0.00 | 0.00 | 44 | 1006.4 |
| 20260505211539 | 23 | 172 | 11.3 | 29.0 | 0.00 | 0.00 | 0.00 | 44 | 1006.3 |
| 20260505211013 | 23 | 221 | 12.9 | 30.6 | 0.00 | 0.00 | 0.00 | 44 | 1006.3 |
| 20260505210516 | 23 | 212 | 12.9 | 30.6 | 0.00 | 0.00 | 0.00 | 46 | 1006.4 |
| 20260505210029 | 24 | 228 | 12.9 | 30.6 | 0.00 | 0.00 | 0.00 | 43 | 1006.2 |
| 20260505205514 | 24 | 195 | 12.9 | 29.0 | 0.00 | 0.00 | 0.00 | 43 | 1006.1 |
| 20260505205012 | 25 | 200 | 14.5 | 33.8 | 0.00 | 0.00 | 0.00 | 44 | 1006.0 |
| 20260505204010 | 23 | 298 | 12.9 | 29.0 | 0.00 | 0.00 | 0.00 | 44 | 1005.9 |
| 20260505203511 | 23 | 223 | 11.3 | 30.6 | 0.00 | 0.00 | 0.00 | 44 | 1006.0 |
| 20260505203037 | 23 | 206 | 9.7 | 40.2 | 0.00 | 0.00 | 0.00 | 45 | 1006.0 |
| 20260505202514 | 23 | 223 | 14.5 | 40.2 | 0.00 | 0.00 | 0.00 | 44 | 1006.1 |
| 20260505202012 | 23 | 221 | 19.3 | 40.2 | 0.00 | 0.00 | 0.00 | 43 | 1006.0 |
| 20260505201528 | 23 | 182 | 17.7 | 35.4 | 0.00 | 0.00 | 0.00 | 43 | 1006.1 |
| 20260505201015 | 23 | 153 | 17.7 | 35.4 | 0.00 | 0.00 | 0.00 | 43 | 1006.1 |
| 20260505200512 | 23 | 215 | 12.9 | 27.4 | 0.00 | 0.00 | 0.00 | 44 | 1005.9 |
| 20260505200030 | 23 | 205 | 14.5 | 27.4 | 0.00 | 0.00 | 0.00 | 44 | 1005.9 |
| 20260505195511 | 23 | 204 | 12.9 | 27.4 | 0.00 | 0.00 | 0.00 | 45 | 1005.8 |
| 20260505195013 | 23 | 222 | 14.5 | 33.8 | 0.00 | 0.00 | 0.00 | 45 | 1005.8 |
| 20260505194528 | 23 | 189 | 16.1 | 33.8 | 0.00 | 0.00 | 0.00 | 44 | 1005.8 |
| 20260505194016 | 23 | 182 | 16.1 | 30.6 | 0.00 | 0.00 | 0.00 | 44 | 1005.8 |
| 20260505193513 | 24 | 230 | 16.1 | 30.6 | 0.00 | 0.00 | 0.00 | 43 | 1005.7 |
| 20260505193027 | 24 | 170 | 19.3 | 30.6 | 0.00 | 0.00 | 0.00 | 43 | 1005.8 |
| 20260505192512 | 24 | 178 | 12.9 | 29.0 | 0.00 | 0.00 | 0.00 | 44 | 1005.8 |
| 20260505192013 | 24 | 174 | 16.1 | 43.5 | 0.00 | 0.00 | 0.00 | 43 | 1005.8 |
| 20260505191528 | 24 | 200 | 19.3 | 43.5 | 0.00 | 0.00 | 0.00 | 43 | 1005.9 |
| 20260505191011 | 24 | 202 | 19.3 | 40.2 | 0.00 | 0.00 | 0.00 | 44 | 1006.2 |
| 20260505190512 | 24 | 185 | 16.1 | 37.0 | 0.00 | 0.00 | 0.00 | 45 | 1006.2 |
| 20260505190034 | 24 | 184 | 20.9 | 43.5 | 0.00 | 0.00 | 0.00 | 44 | 1006.5 |
| 20260505185517 | 24 | 214 | 22.5 | 43.5 | 0.00 | 0.00 | 0.00 | 43 | 1006.5 |
| 20260505185012 | 24 | 192 | 20.9 | 41.8 | 0.00 | 0.00 | 0.00 | 43 | 1006.8 |
| 20260505184542 | 24 | 244 | 17.7 | 33.8 | 0.00 | 0.00 | 0.00 | 43 | 1006.5 |
| 20260505184016 | 24 | 229 | 16.1 | 33.8 | 0.00 | 0.00 | 0.00 | 44 | 1006.6 |
| 20260505183513 | 24 | 168 | 17.7 | 32.2 | 0.00 | 0.00 | 0.00 | 42 | 1006.7 |
| 20260505183037 | 24 | 197 | 11.3 | 29.0 | 0.00 | 0.00 | 0.00 | 46 | 1006.7 |
| 20260505182512 | 24 | 230 | 16.1 | 30.6 | 0.00 | 0.00 | 0.00 | 44 | 1006.8 |
| 20260505182014 | 23 | 186 | 17.7 | 37.0 | 0.00 | 0.00 | 0.00 | 43 | 1006.7 |
| 20260505181530 | 24 | 202 | 16.1 | 41.8 | 0.00 | 0.00 | 0.00 | 44 | 1006.9 |
| 20260505181012 | 23 | 184 | 20.9 | 41.8 | 0.00 | 0.00 | 0.00 | 43 | 1007.0 |
| 20260505180516 | 23 | 177 | 17.7 | 41.8 | 0.00 | 0.00 | 0.00 | 46 | 1007.2 |
| 20260505180029 | 24 | 263 | 14.5 | 41.8 | 0.00 | 0.00 | 0.00 | 45 | 1007.2 |
| 20260505175514 | 24 | 215 | 19.3 | 38.6 | 0.00 | 0.00 | 0.00 | 43 | 1007.4 |
| 20260505175013 | 24 | 171 | 16.1 | 30.6 | 0.00 | 0.00 | 0.00 | 45 | 1007.4 |
| 20260505174529 | 23 | 211 | 9.7 | 25.7 | 0.00 | 0.00 | 0.00 | 49 | 1007.2 |
| 20260505174011 | 23 | 209 | 11.3 | 25.7 | 0.00 | 0.00 | 0.00 | 45 | 1007.5 |
| 20260505173512 | 23 | 238 | 14.5 | 33.8 | 0.00 | 0.00 | 0.00 | 45 | 1007.5 |
| 20260505173029 | 23 | 226 | 12.9 | 33.8 | 0.00 | 0.00 | 0.00 | 45 | 1007.4 |
| 20260505172511 | 23 | 219 | 17.7 | 33.8 | 0.00 | 0.00 | 0.00 | 45 | 1007.6 |
| 20260505172013 | 23 | 232 | 20.9 | 33.8 | 0.00 | 0.00 | 0.00 | 45 | 1007.2 |
| 20260505171528 | 23 | 217 | 17.7 | 30.6 | 0.00 | 0.00 | 0.00 | 46 | 1007.2 |
| 20260505171014 | 23 | 221 | 12.9 | 32.2 | 0.00 | 0.00 | 0.00 | 49 | 1007.4 |
| 20260505170512 | 23 | 168 | 17.7 | 32.2 | 0.00 | 0.00 | 0.00 | 48 | 1007.6 |
| 20260505170035 | 23 | 177 | 14.5 | 24.1 | 0.00 | 0.00 | 0.00 | 48 | 1007.4 |
| 20260505165514 | 23 | 262 | 9.7 | 24.1 | 0.00 | 0.00 | 0.00 | 48 | 1007.5 |
| 20260505165013 | 23 | 217 | 12.9 | 24.1 | 0.00 | 0.00 | 0.00 | 49 | 1007.5 |
| 20260505164534 | 22 | 223 | 8.0 | 32.2 | 0.00 | 0.00 | 0.00 | 51 | 1007.7 |
| 20260505164011 | 22 | 216 | 9.7 | 32.2 | 0.00 | 0.00 | 0.00 | 51 | 1007.7 |
| 20260505163513 | 23 | 204 | 16.1 | 30.6 | 0.00 | 0.00 | 0.00 | 51 | 1007.9 |
| 20260505163028 | 23 | 223 | 14.5 | 30.6 | 0.00 | 0.00 | 0.00 | 50 | 1007.9 |
| 20260505162518 | 23 | 182 | 17.7 | 30.6 | 0.00 | 0.00 | 0.00 | 49 | 1008.0 |
| 20260505162012 | 23 | 220 | 12.9 | 37.0 | 0.00 | 0.00 | 0.00 | 51 | 1007.9 |
| 20260505161530 | 23 | 190 | 12.9 | 41.8 | 0.00 | 0.00 | 0.00 | 52 | 1007.9 |
| 20260505161011 | 23 | 188 | 14.5 | 41.8 | 0.00 | 0.00 | 0.00 | 53 | 1008.0 |
| 20260505160516 | 22 | 215 | 9.7 | 33.8 | 0.00 | 0.00 | 0.00 | 54 | 1008.0 |
| 20260505153028 | 22 | 171 | 14.5 | 38.6 | 0.00 | 0.00 | 0.00 | 54 | 1008.6 |
| 20260505152513 | 22 | 199 | 17.7 | 38.6 | 0.00 | 0.00 | 0.00 | 53 | 1008.6 |
| 20260505152011 | 22 | 200 | 11.3 | 35.4 | 0.00 | 0.00 | 0.00 | 56 | 1008.4 |
| 20260505151535 | 21 | 193 | 20.9 | 35.4 | 0.00 | 0.00 | 0.00 | 55 | 1008.5 |
| 20260505151010 | 21 | 197 | 19.3 | 32.2 | 0.00 | 0.00 | 0.00 | 55 | 1008.6 |
| 20260505150513 | 21 | 202 | 14.5 | 29.0 | 0.00 | 0.00 | 0.00 | 57 | 1008.6 |
| 20260505140512 | 19 | 226 | 9.7 | 19.3 | 0.00 | 0.00 | 0.00 | 59 | 1008.7 |
| 20260505125013 | 17 | 186 | 11.3 | 22.5 | 0.00 | 0.00 | 0.00 | 64 | 1009.3 |
| 20260505124528 | 17 | 175 | 9.7 | 22.5 | 0.00 | 0.00 | 0.00 | 65 | 1009.2 |
| 20260505124014 | 17 | 232 | 9.7 | 20.9 | 0.00 | 0.00 | 0.00 | 65 | 1009.2 |
| 20260505123512 | 17 | 188 | 11.3 | 20.9 | 0.00 | 0.00 | 0.00 | 65 | 1009.4 |
| 20260505123030 | 17 | 190 | 12.9 | 20.9 | 0.00 | 0.00 | 0.00 | 65 | 1009.3 |
| 20260505122513 | 17 | 221 | 11.3 | 20.9 | 0.00 | 0.00 | 0.00 | 66 | 1009.1 |
| 20260505122015 | 17 | 188 | 8.0 | 20.9 | 0.00 | 0.00 | 0.00 | 66 | 1009.1 |
| 20260505121536 | 17 | 169 | 9.7 | 22.5 | 0.00 | 0.00 | 0.00 | 66 | 1009.0 |
| 20260505121010 | 17 | 234 | 11.3 | 22.5 | 0.00 | 0.00 | 0.00 | 67 | 1009.0 |
| 20260505120510 | 16 | 182 | 8.0 | 20.9 | 0.00 | 0.00 | 0.00 | 67 | 1009.0 |
| 20260505120029 | 16 | 178 | 11.3 | 20.9 | 0.00 | 0.00 | 0.00 | 68 | 1009.0 |
| 20260505115511 | 16 | 163 | 8.0 | 17.7 | 0.00 | 0.00 | 0.00 | 68 | 1009.1 |
| 20260505115011 | 16 | 180 | 8.0 | 17.7 | 0.00 | 0.00 | 0.00 | 68 | 1009.2 |
| 20260505114528 | 16 | 159 | 4.8 | 16.1 | 0.00 | 0.00 | 0.00 | 69 | 1009.1 |
| 20260505114012 | 16 | 208 | 6.4 | 16.1 | 0.00 | 0.00 | 0.00 | 69 | 1009.3 |
| 20260505113511 | 15 | 169 | 4.8 | 16.1 | 0.00 | 0.00 | 0.00 | 70 | 1009.2 |